Volver al catálogo

COSMOS 1275 DEB

ActivoPO
NORAD 17624·DEBRIS·🇷🇺 Russia

Lanzado Jun 4, 1981 desde Plesetsk Cosmodrome

Loading…

Próximos Pases (próximas 24 horas)

TLE

ActualizadoSource: Space-Track

Época: Sep 14, 2026, 06:59 UTC

1 17624U 81053KT  26257.29115266  .00003472  00000-0  89679-3 0  9999
2 17624  82.8420 359.8586 0010362 243.2279 144.5472 14.49732538136891

Sigue COSMOS 1275 DEB en tiempo real con AllMySat

Download on the App Store